Cut Bank, MT

5:28 AM MDT on August 18, 2017 (GMT -0600)
Cut Bank Municipal

Weather History for KCTB - April, 2012

Change the Weather History Date:

Friday, April 6, 2012

  Actual Average Record
Temperature  
Mean Temperature 32 °F 38 °F  
Max Temperature 38 °F 50 °F 71 °F (1969)
Min Temperature 25 °F 27 °F -3 °F (1975)
Degree Days  
Heating Degree Days 33 27  
Month to date heating degree days 150 165  
Since 1 July heating degree days 6521 7263  
Cooling Degree Days 0 0  
Month to date cooling degree days 0 0  
Year to date cooling degree days 0 0  
Moisture  
Dew Point 25 °F    
Average Humidity 78    
Maximum Humidity 100    
Minimum Humidity 56    
Precipitation  
Precipitation T in 0.02 in 0.52 in (1920)
Month to date precipitation T 0.11  
Year to date precipitation 0.85 1.02  
Snow  
Snow T in - - ()
Snow Depth 0.00 in    
Sea Level Pressure  
Sea Level Pressure 30.04 in    
Wind  
Wind Speed 9 mph (NNW)    
Max Wind Speed 21 mph    
Max Gust Speed 24 mph    
Visibility 6 miles    
Events Fog , Snow    
T = Trace of Precipitation, MM = Missing Value Source: NWS Daily Summary

Daily Weather History Graph

Daily Weather History Graph

Search for Another Location

Airport or City:

Trip Planner

Search our weather history database for the weather conditions in past years. The results will help you decide how hot, cold, wet, or windy it might be!

Date:

Astronomy

Apr. 06, 2012 Rise Set
Actual Time 6:55 AM MDT 8:08 PM MDT
Civil Twilight 6:23 AM MDT 8:40 PM MDT
Nautical Twilight 5:44 AM MDT 9:19 PM MDT
Astronomical Twilight 5:03 AM MDT 10:01 PM MDT
Moon 8:39 PM MDT (4/6) 6:28 AM MDT (4/6)
Length of Visible Light 14h 17m
Length of Day
13h 12m
Full, 100% of the Moon is Illuminated
Apr 6
Full
Apr 6
Full
Apr 13
Last Quarter
Apr 21
New
Apr 29
First Quarter

Hourly Weather History & Observations

Time (MDT) Temp. Windchill Dew Point Humidity Pressure Visibility Wind Dir Wind Speed Gust Speed Precip Events Conditions
12:56 AM 25.0 °F 16.3 °F 16.0 °F 69% 30.01 in 10.0 mi North 8.1 mph - N/A   Clear
1:56 AM 27.0 °F 17.3 °F 17.1 °F 66% 30.00 in 10.0 mi North 10.4 mph - N/A   Clear
2:56 AM 28.0 °F 18.1 °F 17.1 °F 63% 29.98 in 10.0 mi NNW 11.5 mph - N/A   Overcast
3:56 AM 28.0 °F 21.7 °F 16.0 °F 61% 29.98 in 10.0 mi NNW 5.8 mph - N/A   Overcast
4:56 AM 28.0 °F 22.8 °F 17.1 °F 63% 29.99 in 10.0 mi NNW 4.6 mph - N/A   Overcast
5:56 AM 30.0 °F 21.1 °F 19.0 °F 64% 29.97 in 10.0 mi NNW 10.4 mph - N/A   Overcast
6:56 AM 32.0 °F 22.1 °F 19.9 °F 61% 29.96 in 10.0 mi NNW 13.8 mph - N/A   Overcast
7:56 AM 33.1 °F 22.6 °F 19.9 °F 59% 29.99 in 10.0 mi NNW 16.1 mph - N/A   Overcast
8:56 AM 32.0 °F 22.1 °F 21.9 °F 66% 30.03 in 10.0 mi NNW 13.8 mph - N/A   Overcast
9:56 AM 32.0 °F 21.6 °F 19.9 °F 61% 30.04 in 10.0 mi NNW 15.0 mph - N/A   Overcast
10:17 AM 32.0 °F 22.1 °F 21.2 °F 64% 29.96 in 8.0 mi NW 13.8 mph - 0.00 in Snow Light Snow
10:56 AM 33.1 °F 24.9 °F 25.0 °F 72% 30.05 in 2.5 mi NW 10.4 mph 18.4 mph 0.00 in Snow Light Snow
11:05 AM 32.0 °F 22.5 °F 24.8 °F 75% 29.96 in 3.0 mi NW 12.7 mph - 0.00 in Snow Light Snow
11:20 AM 33.8 °F 25.8 °F 24.8 °F 70% 29.96 in 4.0 mi NNW 10.4 mph - 0.00 in Snow Light Snow
11:46 AM 32.0 °F 24.8 °F 26.6 °F 80% 29.97 in 1.8 mi NNW 8.1 mph - 0.00 in Snow Light Snow
11:56 AM 34.0 °F 28.0 °F 26.1 °F 73% 30.06 in 3.0 mi NW 6.9 mph - 0.00 in Snow Light Snow
12:03 PM 33.8 °F 24.8 °F 26.6 °F 75% 29.97 in 1.8 mi North 12.7 mph 18.4 mph N/A Snow Light Snow
12:23 PM 33.8 °F 24.3 °F 26.6 °F 75% 29.97 in 2.5 mi NNW 13.8 mph - 0.00 in Snow Light Snow
12:30 PM 33.8 °F 24.3 °F 26.6 °F 75% 29.97 in 6.0 mi North 13.8 mph - 0.00 in   Haze
12:43 PM 33.8 °F 24.8 °F 26.6 °F 75% 29.97 in 5.0 mi North 12.7 mph - 0.00 in   Haze
12:48 PM 33.8 °F 25.3 °F 28.4 °F 81% 29.97 in 2.5 mi North 11.5 mph - 0.00 in Snow Light Snow
12:56 PM 33.1 °F 23.9 °F 28.0 °F 82% 30.08 in 1.5 mi North 12.7 mph - 0.00 in Snow Light Snow
1:01 PM 33.8 °F 25.3 °F 28.4 °F 81% 29.97 in 3.0 mi North 11.5 mph - 0.00 in Snow Light Snow
1:15 PM 33.8 °F 25.3 °F 28.4 °F 81% 29.97 in 8.0 mi NNW 11.5 mph - 0.00 in   Overcast
1:56 PM 36.0 °F 27.1 °F 26.1 °F 67% 30.07 in 10.0 mi NNW 13.8 mph - 0.00 in   Overcast
2:56 PM 37.0 °F 29.8 °F 24.1 °F 59% 30.08 in 10.0 mi North 10.4 mph - N/A   Overcast
3:25 PM 37.4 °F 29.8 °F 26.6 °F 65% 30.00 in 8.0 mi NNW 11.5 mph - N/A   Overcast
3:36 PM 35.6 °F 30.7 °F 26.6 °F 70% 30.00 in 3.0 mi North 5.8 mph - 0.00 in Snow Light Snow
3:56 PM 36.0 °F 30.3 °F 27.0 °F 70% 30.09 in 9.0 mi NNE 6.9 mph - 0.00 in   Overcast
4:43 PM 35.6 °F 29.2 °F 28.4 °F 75% 30.02 in 5.0 mi NE 8.1 mph - 0.00 in Snow Light Snow
4:56 PM 35.1 °F 31.0 °F 28.9 °F 78% 30.11 in 7.0 mi NNE 4.6 mph - 0.00 in Snow Light Snow
5:04 PM 35.6 °F - 28.4 °F 75% 30.02 in 10.0 mi Calm Calm - N/A   Overcast
5:37 PM 33.8 °F 22.5 °F 28.4 °F 81% 30.04 in 1.8 mi North 19.6 mph 24.2 mph 0.00 in Snow Light Snow
5:40 PM 32.0 °F 20.8 °F 28.4 °F 87% 30.04 in 0.8 mi North 17.3 mph 24.2 mph 0.00 in Snow Light Snow
5:48 PM 30.2 °F 21.3 °F 28.4 °F 93% 30.05 in 0.5 mi North 10.4 mph - 0.00 in Fog , Snow Snow
5:56 PM 30.9 °F 25.2 °F 28.9 °F 92% 30.14 in 1.0 mi North 5.8 mph - 0.00 in Snow Light Snow
6:04 PM 32.0 °F 26.4 °F 30.2 °F 93% 30.05 in 3.0 mi NW 5.8 mph - 0.00 in Snow Light Snow
6:24 PM 32.0 °F 27.5 °F 28.4 °F 87% 30.05 in 10.0 mi WNW 4.6 mph - 0.00 in   Overcast
6:53 PM 32.0 °F 22.5 °F 30.2 °F 93% 30.06 in 2.5 mi North 12.7 mph - 0.00 in Snow Light Snow
6:56 PM 32.0 °F 23.6 °F 30.0 °F 92% 30.15 in 1.5 mi North 10.4 mph - 0.00 in Snow Light Snow
7:07 PM 32.0 °F - 30.2 °F 93% 30.06 in 2.0 mi Calm Calm - 0.00 in Snow Light Snow
7:13 PM 32.0 °F 28.7 °F 30.2 °F 93% 30.06 in 6.0 mi NW 3.5 mph - 0.00 in Snow Light Snow
7:56 PM 32.0 °F - 28.9 °F 88% 30.15 in 10.0 mi Calm Calm - 0.00 in   Overcast
8:56 PM 28.9 °F 23.9 °F 28.0 °F 96% 30.18 in 10.0 mi SW 4.6 mph - N/A   Clear
9:56 PM 28.9 °F 22.8 °F 27.0 °F 92% 30.19 in 10.0 mi WNW 5.8 mph - N/A   Partly Cloudy
10:56 PM 28.9 °F 25.2 °F 26.1 °F 89% 30.21 in 10.0 mi West 3.5 mph - N/A   Clear
11:56 PM 28.0 °F 22.8 °F 25.0 °F 88% 30.21 in 10.0 mi West 4.6 mph - N/A   Clear